Year,Month,Day,Hour,Minute,Value (Times are PST for temperature in C)
2019,03,18,00,00,6.70
2019,03,18,00,01,6.70
2019,03,18,00,02,6.70
2019,03,18,00,03,6.70
2019,03,18,00,04,6.70
2019,03,18,00,05,6.70
2019,03,18,00,06,6.70
2019,03,18,00,07,6.60
2019,03,18,00,08,6.60
2019,03,18,00,09,6.60
2019,03,18,00,10,6.60
2019,03,18,00,11,6.60
2019,03,18,00,12,6.60
2019,03,18,00,13,6.50
2019,03,18,00,14,6.50
2019,03,18,00,15,6.50
2019,03,18,00,16,6.50
2019,03,18,00,17,6.50
2019,03,18,00,18,6.50
2019,03,18,00,19,6.50
2019,03,18,00,20,6.50
2019,03,18,00,21,6.50
2019,03,18,00,22,6.50
2019,03,18,00,23,6.40
2019,03,18,00,24,6.40
2019,03,18,00,25,6.40
2019,03,18,00,26,6.40
2019,03,18,00,27,6.40
2019,03,18,00,28,6.30
2019,03,18,00,29,6.30
2019,03,18,00,30,6.30
2019,03,18,00,31,6.30
2019,03,18,00,32,6.30
2019,03,18,00,33,6.30
2019,03,18,00,34,6.30
2019,03,18,00,35,6.30
2019,03,18,00,36,6.20
2019,03,18,00,37,6.20
2019,03,18,00,38,6.20
2019,03,18,00,39,6.20
2019,03,18,00,40,6.20
2019,03,18,00,41,6.20
2019,03,18,00,42,6.20
2019,03,18,00,43,6.20
2019,03,18,00,44,6.20
2019,03,18,00,45,6.20
2019,03,18,00,46,6.10
2019,03,18,00,47,6.10
2019,03,18,00,48,6.10
2019,03,18,00,49,6.10
2019,03,18,00,50,6.10
2019,03,18,00,51,6.10
2019,03,18,00,52,6.10
2019,03,18,00,53,6.10
2019,03,18,00,54,6.10
2019,03,18,00,55,6.10
2019,03,18,00,56,6.10
2019,03,18,00,57,6.10
2019,03,18,00,58,6.00
2019,03,18,00,59,6.00
2019,03,18,01,00,6.00
2019,03,18,01,01,6.00
2019,03,18,01,02,5.90
2019,03,18,01,03,5.90
2019,03,18,01,04,5.90
2019,03,18,01,05,5.90
2019,03,18,01,06,5.90
2019,03,18,01,07,5.90
2019,03,18,01,08,6.00
2019,03,18,01,09,6.00
2019,03,18,01,10,6.00
2019,03,18,01,11,6.00
2019,03,18,01,12,6.00
2019,03,18,01,13,6.00
2019,03,18,01,14,5.90
2019,03,18,01,15,5.90
2019,03,18,01,16,5.90
2019,03,18,01,17,5.80
2019,03,18,01,18,5.80
2019,03,18,01,19,5.80
2019,03,18,01,20,5.80
2019,03,18,01,21,5.80
2019,03,18,01,22,5.80
2019,03,18,01,23,5.80
2019,03,18,01,24,5.80
2019,03,18,01,25,5.80
2019,03,18,01,26,5.80
2019,03,18,01,27,5.80
2019,03,18,01,28,5.70
2019,03,18,01,29,5.70
2019,03,18,01,30,5.70
2019,03,18,01,31,5.70
2019,03,18,01,32,5.70
2019,03,18,01,33,5.70
2019,03,18,01,34,5.70
2019,03,18,01,35,5.60
2019,03,18,01,36,5.60
2019,03,18,01,37,5.60
2019,03,18,01,38,5.60
2019,03,18,01,39,5.50
2019,03,18,01,40,5.50
2019,03,18,01,41,5.50
2019,03,18,01,42,5.50
2019,03,18,01,43,5.50
2019,03,18,01,44,5.50
2019,03,18,01,45,5.50
2019,03,18,01,46,5.50
2019,03,18,01,47,5.50
2019,03,18,01,48,5.50
2019,03,18,01,49,5.50
2019,03,18,01,50,5.50
2019,03,18,01,51,5.50
2019,03,18,01,52,5.50
2019,03,18,01,53,5.40
2019,03,18,01,54,5.40
2019,03,18,01,55,5.40
2019,03,18,01,56,5.40
2019,03,18,01,57,5.40
2019,03,18,01,58,5.40
2019,03,18,01,59,5.30
2019,03,18,02,00,5.30
2019,03,18,02,01,5.30
2019,03,18,02,02,5.20
2019,03,18,02,03,5.20
2019,03,18,02,04,5.20
2019,03,18,02,05,5.20
2019,03,18,02,06,5.20
2019,03,18,02,07,5.20
2019,03,18,02,08,5.20
2019,03,18,02,09,5.20
2019,03,18,02,10,5.20
2019,03,18,02,11,5.10
2019,03,18,02,12,5.10
2019,03,18,02,13,5.10
2019,03,18,02,14,5.10
2019,03,18,02,15,5.10
2019,03,18,02,16,5.10
2019,03,18,02,17,5.10
2019,03,18,02,18,5.10
2019,03,18,02,19,5.10
2019,03,18,02,20,5.10
2019,03,18,02,21,5.10
2019,03,18,02,22,5.10
2019,03,18,02,23,5.10
2019,03,18,02,24,5.10
2019,03,18,02,25,5.10
2019,03,18,02,26,5.10
2019,03,18,02,27,5.00
2019,03,18,02,28,5.10
2019,03,18,02,29,5.00
2019,03,18,02,30,5.00
2019,03,18,02,31,5.00
2019,03,18,02,32,5.00
2019,03,18,02,33,5.00
2019,03,18,02,34,5.00
2019,03,18,02,35,5.00
2019,03,18,02,36,5.00
2019,03,18,02,37,5.00
2019,03,18,02,38,5.00
2019,03,18,02,39,5.00
2019,03,18,02,40,4.90
2019,03,18,02,41,4.90
2019,03,18,02,42,4.90
2019,03,18,02,43,4.90
2019,03,18,02,44,4.90
2019,03,18,02,45,5.00
2019,03,18,02,46,4.90
2019,03,18,02,47,4.90
2019,03,18,02,48,4.90
2019,03,18,02,49,4.90
2019,03,18,02,50,4.90
2019,03,18,02,51,4.90
2019,03,18,02,52,4.90
2019,03,18,02,53,4.90
2019,03,18,02,54,4.90
2019,03,18,02,55,4.80
2019,03,18,02,56,4.80
2019,03,18,02,57,4.80
2019,03,18,02,58,4.80
2019,03,18,02,59,4.80
2019,03,18,03,00,4.80
2019,03,18,03,01,4.80
2019,03,18,03,02,4.80
2019,03,18,03,03,4.80
2019,03,18,03,04,4.70
2019,03,18,03,05,4.70
2019,03,18,03,06,4.70
2019,03,18,03,07,4.70
2019,03,18,03,08,4.70
2019,03,18,03,09,4.70
2019,03,18,03,10,4.70
2019,03,18,03,11,4.70
2019,03,18,03,12,4.70
2019,03,18,03,13,4.60
2019,03,18,03,14,4.60
2019,03,18,03,15,4.60
2019,03,18,03,16,4.60
2019,03,18,03,17,4.60
2019,03,18,03,18,4.60
2019,03,18,03,19,4.60
2019,03,18,03,20,4.60
2019,03,18,03,21,4.60
2019,03,18,03,22,4.60
2019,03,18,03,23,4.60
2019,03,18,03,24,4.60
2019,03,18,03,25,4.60
2019,03,18,03,26,4.60
2019,03,18,03,27,4.60
2019,03,18,03,28,4.60
2019,03,18,03,29,4.60
2019,03,18,03,30,4.60
2019,03,18,03,31,4.60
2019,03,18,03,32,4.60
2019,03,18,03,33,4.60
2019,03,18,03,34,4.60
2019,03,18,03,35,4.70
2019,03,18,03,36,4.70
2019,03,18,03,37,4.70
2019,03,18,03,38,4.70
2019,03,18,03,39,4.70
2019,03,18,03,40,4.70
2019,03,18,03,41,4.70
2019,03,18,03,42,4.70
2019,03,18,03,43,4.70
2019,03,18,03,44,4.70
2019,03,18,03,45,4.70
2019,03,18,03,46,4.70
2019,03,18,03,47,4.60
2019,03,18,03,48,4.60
2019,03,18,03,49,4.50
2019,03,18,03,50,4.50
2019,03,18,03,51,4.50
2019,03,18,03,52,4.40
2019,03,18,03,53,4.40
2019,03,18,03,54,4.40
2019,03,18,03,55,4.40
2019,03,18,03,56,4.40
2019,03,18,03,57,4.40
2019,03,18,03,58,4.40
2019,03,18,03,59,4.30
2019,03,18,04,00,4.30
2019,03,18,04,01,4.30
2019,03,18,04,02,4.30
2019,03,18,04,03,4.30
2019,03,18,04,04,4.20
2019,03,18,04,05,4.20
2019,03,18,04,06,4.20
2019,03,18,04,07,4.20
2019,03,18,04,08,4.20
2019,03,18,04,09,4.20
2019,03,18,04,10,4.20
2019,03,18,04,11,4.20
2019,03,18,04,12,4.30
2019,03,18,04,13,4.30
2019,03,18,04,14,4.30
2019,03,18,04,15,4.30
2019,03,18,04,16,4.20
2019,03,18,04,17,4.20
2019,03,18,04,18,4.20
2019,03,18,04,19,4.20
2019,03,18,04,20,4.30
2019,03,18,04,21,4.30
2019,03,18,04,22,4.30
2019,03,18,04,23,4.30
2019,03,18,04,24,4.30
2019,03,18,04,25,4.30
2019,03,18,04,26,4.30
2019,03,18,04,27,4.30
2019,03,18,04,28,4.30
2019,03,18,04,29,4.30
2019,03,18,04,30,4.30
2019,03,18,04,31,4.30
2019,03,18,04,32,4.20
2019,03,18,04,33,4.20
2019,03,18,04,34,4.20
2019,03,18,04,35,4.20
2019,03,18,04,36,4.20
2019,03,18,04,37,4.20
2019,03,18,04,38,4.20
2019,03,18,04,39,4.20
2019,03,18,04,40,4.20
2019,03,18,04,41,4.20
2019,03,18,04,42,4.20
2019,03,18,04,43,4.20
2019,03,18,04,44,4.20
2019,03,18,04,45,4.20
2019,03,18,04,46,4.20
2019,03,18,04,47,4.20
2019,03,18,04,48,4.10
2019,03,18,04,49,4.10
2019,03,18,04,50,4.10
2019,03,18,04,51,4.00
2019,03,18,04,52,4.00
2019,03,18,04,53,3.90
2019,03,18,04,54,3.90
2019,03,18,04,55,3.90
2019,03,18,04,56,3.90
2019,03,18,04,57,3.80
2019,03,18,04,58,3.80
2019,03,18,04,59,3.80
2019,03,18,05,00,3.90
2019,03,18,05,01,3.90
2019,03,18,05,02,3.90
2019,03,18,05,03,3.90
2019,03,18,05,04,3.90
2019,03,18,05,05,3.90
2019,03,18,05,06,3.90
2019,03,18,05,07,3.80
2019,03,18,05,08,3.80
2019,03,18,05,09,3.80
2019,03,18,05,10,3.80
2019,03,18,05,11,3.80
2019,03,18,05,12,3.80
2019,03,18,05,13,3.80
2019,03,18,05,14,3.80
2019,03,18,05,15,3.80
2019,03,18,05,16,3.80
2019,03,18,05,17,3.80
2019,03,18,05,18,3.70
2019,03,18,05,19,3.70
2019,03,18,05,20,3.70
2019,03,18,05,21,3.70
2019,03,18,05,22,3.70
2019,03,18,05,23,3.70
2019,03,18,05,24,3.60
2019,03,18,05,25,3.60
2019,03,18,05,26,3.50
2019,03,18,05,27,3.50
2019,03,18,05,28,3.50
2019,03,18,05,29,3.50
2019,03,18,05,30,3.50
2019,03,18,05,31,3.50
2019,03,18,05,32,3.50
2019,03,18,05,33,3.60
2019,03,18,05,34,3.50
2019,03,18,05,35,3.50
2019,03,18,05,36,3.50
2019,03,18,05,37,3.50
2019,03,18,05,38,3.40
2019,03,18,05,39,3.40
2019,03,18,05,40,3.40
2019,03,18,05,41,3.40
2019,03,18,05,42,3.40
2019,03,18,05,43,3.40
2019,03,18,05,44,3.40
2019,03,18,05,45,3.40
2019,03,18,05,46,3.40
2019,03,18,05,47,3.40
2019,03,18,05,48,3.40
2019,03,18,05,49,3.30
2019,03,18,05,50,3.30
2019,03,18,05,51,3.30
2019,03,18,05,52,3.30
2019,03,18,05,53,3.30
2019,03,18,05,54,3.30
2019,03,18,05,55,3.30
2019,03,18,05,56,3.40
2019,03,18,05,57,3.40
2019,03,18,05,58,3.40
2019,03,18,05,59,3.40
2019,03,18,06,00,3.40
2019,03,18,06,01,3.50
2019,03,18,06,02,3.50
2019,03,18,06,03,3.50
2019,03,18,06,04,3.50
2019,03,18,06,05,3.50
2019,03,18,06,06,3.50
2019,03,18,06,07,3.50
2019,03,18,06,08,3.50
2019,03,18,06,09,3.50
2019,03,18,06,10,3.50
2019,03,18,06,11,3.40
2019,03,18,06,12,3.40
2019,03,18,06,13,3.40
2019,03,18,06,14,3.40
2019,03,18,06,15,3.50
2019,03,18,06,16,3.50
2019,03,18,06,17,3.50
2019,03,18,06,18,3.50
2019,03,18,06,19,3.60
2019,03,18,06,20,3.60
2019,03,18,06,21,3.60
2019,03,18,06,22,3.60
2019,03,18,06,23,3.50
2019,03,18,06,24,3.50
2019,03,18,06,25,3.40
2019,03,18,06,26,3.40
2019,03,18,06,27,3.40
2019,03,18,06,28,3.40
2019,03,18,06,29,3.40
2019,03,18,06,30,3.40
2019,03,18,06,31,3.40
2019,03,18,06,32,3.40
2019,03,18,06,33,3.40
2019,03,18,06,34,3.40
2019,03,18,06,35,3.40
2019,03,18,06,36,3.30
2019,03,18,06,37,3.30
2019,03,18,06,38,3.30
2019,03,18,06,39,3.30
2019,03,18,06,40,3.30
2019,03,18,06,41,3.20
2019,03,18,06,42,3.20
2019,03,18,06,43,3.20
2019,03,18,06,44,3.20
2019,03,18,06,45,3.20
2019,03,18,06,46,3.20
2019,03,18,06,47,3.20
2019,03,18,06,48,3.20
2019,03,18,06,49,3.30
2019,03,18,06,50,3.30
2019,03,18,06,51,3.30
2019,03,18,06,52,3.20
2019,03,18,06,53,3.20
2019,03,18,06,54,3.20
2019,03,18,06,55,3.20
2019,03,18,06,56,3.10
2019,03,18,06,57,3.10
2019,03,18,06,58,3.10
2019,03,18,06,59,3.10
2019,03,18,07,00,3.10
2019,03,18,07,01,3.00
2019,03,18,07,02,3.00
2019,03,18,07,03,3.00
2019,03,18,07,04,2.90
2019,03,18,07,05,2.90
2019,03,18,07,06,2.90
2019,03,18,07,07,2.90
2019,03,18,07,08,2.90
2019,03,18,07,09,2.90
2019,03,18,07,10,3.00
2019,03,18,07,11,3.00
2019,03,18,07,12,3.10
2019,03,18,07,13,3.10
2019,03,18,07,14,3.10
2019,03,18,07,15,3.10
2019,03,18,07,16,3.10
2019,03,18,07,17,3.10
2019,03,18,07,18,3.10
2019,03,18,07,19,3.10
2019,03,18,07,20,3.10
2019,03,18,07,21,3.10
2019,03,18,07,22,3.10
2019,03,18,07,23,3.10
2019,03,18,07,24,3.00
2019,03,18,07,25,3.00
2019,03,18,07,26,3.00
2019,03,18,07,27,2.90
2019,03,18,07,28,2.90
2019,03,18,07,29,2.80
2019,03,18,07,30,2.80
2019,03,18,07,31,2.80
2019,03,18,07,32,2.80
2019,03,18,07,33,2.70
2019,03,18,07,34,2.70
2019,03,18,07,35,2.70
2019,03,18,07,36,2.70
2019,03,18,07,37,2.70
2019,03,18,07,38,2.70
2019,03,18,07,39,2.70
2019,03,18,07,40,2.70
2019,03,18,07,41,2.70
2019,03,18,07,42,2.60
2019,03,18,07,43,2.60
2019,03,18,07,44,2.60
2019,03,18,07,45,2.60
2019,03,18,07,46,2.60
2019,03,18,07,47,2.70
2019,03,18,07,48,2.70
2019,03,18,07,49,2.70
2019,03,18,07,50,2.70
2019,03,18,07,51,2.70
2019,03,18,07,52,2.70
2019,03,18,07,53,2.70
2019,03,18,07,54,2.70
2019,03,18,07,55,2.70
2019,03,18,07,56,2.70
2019,03,18,07,57,2.80
2019,03,18,07,58,2.80
2019,03,18,07,59,2.80
2019,03,18,08,00,2.80
2019,03,18,08,01,2.80
2019,03,18,08,02,2.80
2019,03,18,08,03,2.80
2019,03,18,08,04,2.80
2019,03,18,08,05,2.80
2019,03,18,08,06,2.80
2019,03,18,08,07,2.80
2019,03,18,08,08,2.80
2019,03,18,08,09,2.80
2019,03,18,08,10,2.80
2019,03,18,08,11,2.80
2019,03,18,08,12,2.80
2019,03,18,08,13,2.80
2019,03,18,08,14,2.80
2019,03,18,08,15,2.70
2019,03,18,08,16,2.70
2019,03,18,08,17,2.70
2019,03,18,08,18,2.70
2019,03,18,08,19,2.70
2019,03,18,08,20,2.70
2019,03,18,08,21,2.70
2019,03,18,08,22,2.70
2019,03,18,08,23,2.70
2019,03,18,08,24,2.70
2019,03,18,08,25,2.60
2019,03,18,08,26,2.60
2019,03,18,08,27,2.60
2019,03,18,08,28,2.60
2019,03,18,08,29,2.60
2019,03,18,08,30,2.60
2019,03,18,08,31,2.60
2019,03,18,08,32,2.60
2019,03,18,08,33,2.60
2019,03,18,08,34,2.60
2019,03,18,08,35,2.60
2019,03,18,08,36,2.60
2019,03,18,08,37,2.60
2019,03,18,08,38,2.60
2019,03,18,08,39,2.70
2019,03,18,08,40,2.70
2019,03,18,08,41,2.80
2019,03,18,08,42,2.80
2019,03,18,08,43,2.90
2019,03,18,08,44,3.00
2019,03,18,08,45,3.10
2019,03,18,08,46,3.10
2019,03,18,08,47,3.20
2019,03,18,08,48,3.20
2019,03,18,08,49,3.30
2019,03,18,08,50,3.30
2019,03,18,08,51,3.40
2019,03,18,08,52,3.40
2019,03,18,08,53,3.50
2019,03,18,08,54,3.50
2019,03,18,08,55,3.50
2019,03,18,08,56,3.40
2019,03,18,08,57,3.40
2019,03,18,08,58,3.40
2019,03,18,08,59,3.30
2019,03,18,09,00,3.30
2019,03,18,09,01,3.30
2019,03,18,09,02,3.30
2019,03,18,09,03,3.30
2019,03,18,09,04,3.30
2019,03,18,09,05,3.30
2019,03,18,09,06,3.30
2019,03,18,09,07,3.30
2019,03,18,09,08,3.30
2019,03,18,09,09,3.40
2019,03,18,09,10,3.40
2019,03,18,09,11,3.40
2019,03,18,09,12,3.50
2019,03,18,09,13,3.50
2019,03,18,09,14,3.50
2019,03,18,09,15,3.50
2019,03,18,09,16,3.50
2019,03,18,09,17,3.60
2019,03,18,09,18,3.60
2019,03,18,09,19,3.60
2019,03,18,09,20,3.70
2019,03,18,09,21,3.70
2019,03,18,09,22,3.70
2019,03,18,09,23,3.70
2019,03,18,09,24,3.80
2019,03,18,09,25,3.80
2019,03,18,09,26,3.80
2019,03,18,09,27,3.90
2019,03,18,09,28,3.90
2019,03,18,09,29,3.90
2019,03,18,09,30,4.00
2019,03,18,09,31,4.00
2019,03,18,09,32,4.00
2019,03,18,09,33,4.10
2019,03,18,09,34,4.20
2019,03,18,09,35,4.20
2019,03,18,09,36,4.20
2019,03,18,09,37,4.30
2019,03,18,09,38,4.30
2019,03,18,09,39,4.30
2019,03,18,09,40,4.30
2019,03,18,09,41,4.40
2019,03,18,09,42,4.40
2019,03,18,09,43,4.50
2019,03,18,09,44,4.50
2019,03,18,09,45,4.50
2019,03,18,09,46,4.60
2019,03,18,09,47,4.60
2019,03,18,09,48,4.70
2019,03,18,09,49,4.80
2019,03,18,09,50,4.80
2019,03,18,09,51,4.80
2019,03,18,09,52,4.90
2019,03,18,09,53,4.90
2019,03,18,09,54,5.00
2019,03,18,09,55,5.00
2019,03,18,09,56,5.00
2019,03,18,09,57,5.10
2019,03,18,09,58,5.10
2019,03,18,09,59,5.20
2019,03,18,10,00,5.20
2019,03,18,10,01,5.20
2019,03,18,10,02,5.30
2019,03,18,10,03,5.30
2019,03,18,10,04,5.40
2019,03,18,10,05,5.50
2019,03,18,10,06,5.60
2019,03,18,10,07,5.70
2019,03,18,10,08,5.70
2019,03,18,10,09,5.80
2019,03,18,10,10,5.90
2019,03,18,10,11,5.90
2019,03,18,10,12,6.00
2019,03,18,10,13,6.00
2019,03,18,10,14,6.10
2019,03,18,10,15,6.10
2019,03,18,10,16,6.10
2019,03,18,10,17,6.10
2019,03,18,10,18,6.20
2019,03,18,10,19,6.20
2019,03,18,10,20,6.30
2019,03,18,10,21,6.30
2019,03,18,10,22,6.40
2019,03,18,10,23,6.40
2019,03,18,10,24,6.50
2019,03,18,10,25,6.60
2019,03,18,10,26,6.60
2019,03,18,10,27,6.70
2019,03,18,10,28,6.70
2019,03,18,10,29,6.80
2019,03,18,10,30,6.90
2019,03,18,10,31,6.90
2019,03,18,10,32,7.00
2019,03,18,10,33,7.00
2019,03,18,10,34,7.10
2019,03,18,10,35,7.10
2019,03,18,10,36,7.20
2019,03,18,10,37,7.30
2019,03,18,10,38,7.40
2019,03,18,10,39,7.40
2019,03,18,10,40,7.50
2019,03,18,10,41,7.60
2019,03,18,10,42,7.70
2019,03,18,10,43,7.70
2019,03,18,10,44,7.80
2019,03,18,10,45,7.80
2019,03,18,10,46,7.80
2019,03,18,10,47,7.90
2019,03,18,10,48,7.90
2019,03,18,10,49,8.00
2019,03,18,10,50,8.00
2019,03,18,10,51,8.10
2019,03,18,10,52,8.20
2019,03,18,10,53,8.20
2019,03,18,10,54,8.30
2019,03,18,10,55,8.40
2019,03,18,10,56,8.40
2019,03,18,10,57,8.50
2019,03,18,10,58,8.60
2019,03,18,10,59,8.60
2019,03,18,11,00,8.60
2019,03,18,11,01,8.70
2019,03,18,11,02,8.70
2019,03,18,11,03,8.70
2019,03,18,11,04,8.80
2019,03,18,11,05,8.80
2019,03,18,11,06,8.90
2019,03,18,11,07,9.00
2019,03,18,11,08,9.10
2019,03,18,11,09,9.20
2019,03,18,11,10,9.20
2019,03,18,11,11,9.20
2019,03,18,11,12,9.30
2019,03,18,11,13,9.30
2019,03,18,11,14,9.40
2019,03,18,11,15,9.40
2019,03,18,11,16,9.50
2019,03,18,11,17,9.50
2019,03,18,11,18,9.60
2019,03,18,11,19,9.60
2019,03,18,11,20,9.60
2019,03,18,11,21,9.70
2019,03,18,11,22,9.70
2019,03,18,11,23,9.70
2019,03,18,11,24,9.70
2019,03,18,11,25,9.80
2019,03,18,11,26,9.80
2019,03,18,11,27,9.90
2019,03,18,11,28,10.00
2019,03,18,11,29,10.00
2019,03,18,11,30,10.10
2019,03,18,11,31,10.20
2019,03,18,11,32,10.20
2019,03,18,11,33,10.30
2019,03,18,11,34,10.30
2019,03,18,11,35,10.40
2019,03,18,11,36,10.40
2019,03,18,11,37,10.50
2019,03,18,11,38,10.50
2019,03,18,11,39,10.50
2019,03,18,11,40,10.60
2019,03,18,11,41,10.60
2019,03,18,11,42,10.70
2019,03,18,11,43,10.70
2019,03,18,11,44,10.80
2019,03,18,11,45,10.90
2019,03,18,11,46,10.90
2019,03,18,11,47,10.90
2019,03,18,11,48,11.00
2019,03,18,11,49,11.00
2019,03,18,11,50,11.10
2019,03,18,11,51,11.20
2019,03,18,11,52,11.30
2019,03,18,11,53,11.30
2019,03,18,11,54,11.50
2019,03,18,11,55,11.60
2019,03,18,11,56,11.70
2019,03,18,11,57,11.90
2019,03,18,11,58,11.90
2019,03,18,11,59,12.00
2019,03,18,12,00,12.10
2019,03,18,12,01,12.20
2019,03,18,12,02,12.20
2019,03,18,12,03,12.30
2019,03,18,12,04,12.30
2019,03,18,12,05,12.30
2019,03,18,12,06,12.30
2019,03,18,12,07,12.30
2019,03,18,12,08,12.30
2019,03,18,12,09,12.40
2019,03,18,12,10,12.50
2019,03,18,12,11,12.60
2019,03,18,12,12,12.70
2019,03,18,12,13,12.80
2019,03,18,12,14,12.90
2019,03,18,12,15,13.00
2019,03,18,12,16,13.10
2019,03,18,12,17,13.20
2019,03,18,12,18,13.30
2019,03,18,12,19,13.30
2019,03,18,12,20,13.30
2019,03,18,12,21,13.40
2019,03,18,12,22,13.40
2019,03,18,12,23,13.60
2019,03,18,12,24,13.60
2019,03,18,12,25,13.70
2019,03,18,12,26,13.70
2019,03,18,12,27,13.80
2019,03,18,12,28,13.80
2019,03,18,12,29,13.80
2019,03,18,12,30,13.80
2019,03,18,12,31,13.90
2019,03,18,12,32,13.90
2019,03,18,12,33,14.00
2019,03,18,12,34,14.00
2019,03,18,12,35,14.10
2019,03,18,12,36,14.00
2019,03,18,12,37,14.00
2019,03,18,12,38,14.00
2019,03,18,12,39,14.00
2019,03,18,12,40,13.90
2019,03,18,12,41,13.90
2019,03,18,12,42,13.90
2019,03,18,12,43,14.00
2019,03,18,12,44,14.00
2019,03,18,12,45,14.10
2019,03,18,12,46,14.10
2019,03,18,12,47,14.10
2019,03,18,12,48,14.10
2019,03,18,12,49,14.20
2019,03,18,12,50,14.20
2019,03,18,12,51,14.20
2019,03,18,12,52,14.30
2019,03,18,12,53,14.40
2019,03,18,12,54,14.50
2019,03,18,12,55,14.50
2019,03,18,12,56,14.60
2019,03,18,12,57,14.70
2019,03,18,12,58,14.70
2019,03,18,12,59,14.80
2019,03,18,13,00,14.90
2019,03,18,13,01,14.90
2019,03,18,13,02,14.90
2019,03,18,13,03,15.00
2019,03,18,13,04,15.00
2019,03,18,13,05,15.10
2019,03,18,13,06,15.10
2019,03,18,13,07,15.20
2019,03,18,13,08,15.20
2019,03,18,13,09,15.30
2019,03,18,13,10,15.30
2019,03,18,13,11,15.30
2019,03,18,13,12,15.30
2019,03,18,13,13,15.30
2019,03,18,13,14,15.30
2019,03,18,13,15,15.40
2019,03,18,13,16,15.50
2019,03,18,13,17,15.60
2019,03,18,13,18,15.70
2019,03,18,13,19,15.80
2019,03,18,13,20,15.90
2019,03,18,13,21,15.90
2019,03,18,13,22,16.00
2019,03,18,13,23,16.10
2019,03,18,13,24,16.20
2019,03,18,13,25,16.30
2019,03,18,13,26,16.40
2019,03,18,13,27,16.50
2019,03,18,13,28,16.50
2019,03,18,13,29,16.50
2019,03,18,13,30,16.60
2019,03,18,13,31,16.60
2019,03,18,13,32,16.70
2019,03,18,13,33,16.80
2019,03,18,13,34,16.90
2019,03,18,13,35,17.00
2019,03,18,13,36,17.00
2019,03,18,13,37,17.10
2019,03,18,13,38,17.10
2019,03,18,13,39,17.20
2019,03,18,13,40,17.30
2019,03,18,13,41,17.40
2019,03,18,13,42,17.50
2019,03,18,13,43,17.60
2019,03,18,13,44,17.70
2019,03,18,13,45,17.80
2019,03,18,13,46,17.80
2019,03,18,13,47,17.90
2019,03,18,13,48,17.80
2019,03,18,13,49,17.80
2019,03,18,13,50,17.70
2019,03,18,13,51,17.70
2019,03,18,13,52,17.80
2019,03,18,13,53,17.90
2019,03,18,13,54,18.00
2019,03,18,13,55,18.00
2019,03,18,13,56,18.00
2019,03,18,13,57,18.00
2019,03,18,13,58,18.10
2019,03,18,13,59,18.10
2019,03,18,14,00,18.20
2019,03,18,14,01,18.20
2019,03,18,14,02,18.20
2019,03,18,14,03,18.30
2019,03,18,14,04,18.30
2019,03,18,14,05,18.20
2019,03,18,14,06,18.20
2019,03,18,14,07,18.20
2019,03,18,14,08,18.20
2019,03,18,14,09,18.30
2019,03,18,14,10,18.30
2019,03,18,14,11,18.30
2019,03,18,14,12,18.40
2019,03,18,14,13,18.50
2019,03,18,14,14,18.50
2019,03,18,14,15,18.40
2019,03,18,14,16,18.40
2019,03,18,14,17,18.40
2019,03,18,14,18,18.40
2019,03,18,14,19,18.40
2019,03,18,14,20,18.50
2019,03,18,14,21,18.60
2019,03,18,14,22,18.70
2019,03,18,14,23,18.80
2019,03,18,14,24,18.90
2019,03,18,14,25,19.00
2019,03,18,14,26,19.00
2019,03,18,14,27,19.10
2019,03,18,14,28,19.20
2019,03,18,14,29,19.30
2019,03,18,14,30,19.30
2019,03,18,14,31,19.30
2019,03,18,14,32,19.30
2019,03,18,14,33,19.20
2019,03,18,14,34,19.20
2019,03,18,14,35,19.20
2019,03,18,14,36,19.20
2019,03,18,14,37,19.20
2019,03,18,14,38,19.20
2019,03,18,14,39,19.20
2019,03,18,14,40,19.20
2019,03,18,14,41,19.20
2019,03,18,14,42,19.30
2019,03,18,14,43,19.30
2019,03,18,14,44,19.30
2019,03,18,14,45,19.30
2019,03,18,14,46,19.40
2019,03,18,14,47,19.40
2019,03,18,14,48,19.30
2019,03,18,14,49,19.30
2019,03,18,14,50,19.30
2019,03,18,14,51,19.30
2019,03,18,14,52,19.30
2019,03,18,14,53,19.30
2019,03,18,14,54,19.30
2019,03,18,14,55,19.30
2019,03,18,14,56,19.30
2019,03,18,14,57,19.30
2019,03,18,14,58,19.30
2019,03,18,14,59,19.40
2019,03,18,15,00,19.40
2019,03,18,15,01,19.50
2019,03,18,15,02,19.60
2019,03,18,15,03,19.60
2019,03,18,15,04,19.60
2019,03,18,15,05,19.60
2019,03,18,15,06,19.70
2019,03,18,15,07,19.80
2019,03,18,15,08,19.90
2019,03,18,15,09,19.90
2019,03,18,15,10,20.00
2019,03,18,15,11,20.00
2019,03,18,15,12,20.00
2019,03,18,15,13,20.00
2019,03,18,15,14,19.90
2019,03,18,15,15,19.90
2019,03,18,15,16,19.80
2019,03,18,15,17,19.80
2019,03,18,15,18,19.80
2019,03,18,15,19,19.80
2019,03,18,15,20,19.80
2019,03,18,15,21,19.80
2019,03,18,15,22,19.80
2019,03,18,15,23,19.70
2019,03,18,15,24,19.70
2019,03,18,15,25,19.80
2019,03,18,15,26,19.80
2019,03,18,15,27,19.80
2019,03,18,15,28,19.80
2019,03,18,15,29,19.80
2019,03,18,15,30,19.80
2019,03,18,15,31,19.80
2019,03,18,15,32,19.80
2019,03,18,15,33,19.90
2019,03,18,15,34,19.90
2019,03,18,15,35,19.90
2019,03,18,15,36,20.00
2019,03,18,15,37,20.00
2019,03,18,15,38,20.00
2019,03,18,15,39,20.10
2019,03,18,15,40,20.10
2019,03,18,15,41,20.10
2019,03,18,15,42,20.10
2019,03,18,15,43,20.10
2019,03,18,15,44,20.10
2019,03,18,15,45,20.20
2019,03,18,15,46,20.20
2019,03,18,15,47,20.20
2019,03,18,15,48,20.30
2019,03,18,15,49,20.30
2019,03,18,15,50,20.30
2019,03,18,15,51,20.30
2019,03,18,15,52,20.30
2019,03,18,15,53,20.30
2019,03,18,15,54,20.30
2019,03,18,15,55,20.40
2019,03,18,15,56,20.50
2019,03,18,15,57,20.50
2019,03,18,15,58,20.60
2019,03,18,15,59,20.60
2019,03,18,16,00,20.70
2019,03,18,16,01,20.60
2019,03,18,16,02,20.60
2019,03,18,16,03,20.70
2019,03,18,16,04,20.70
2019,03,18,16,05,20.70
2019,03,18,16,06,20.70
2019,03,18,16,07,20.70
2019,03,18,16,08,20.70
2019,03,18,16,09,20.70
2019,03,18,16,10,20.70
2019,03,18,16,11,20.70
2019,03,18,16,12,20.70
2019,03,18,16,13,20.70
2019,03,18,16,14,20.70
2019,03,18,16,15,20.70
2019,03,18,16,16,20.60
2019,03,18,16,17,20.60
2019,03,18,16,18,20.60
2019,03,18,16,19,20.70
2019,03,18,16,20,20.70
2019,03,18,16,21,20.70
2019,03,18,16,22,20.70
2019,03,18,16,23,20.80
2019,03,18,16,24,20.80
2019,03,18,16,25,20.80
2019,03,18,16,26,20.90
2019,03,18,16,27,20.90
2019,03,18,16,28,20.90
2019,03,18,16,29,20.90
2019,03,18,16,30,20.90
2019,03,18,16,31,20.80
2019,03,18,16,32,20.80
2019,03,18,16,33,20.80
2019,03,18,16,34,20.80
2019,03,18,16,35,20.80
2019,03,18,16,36,20.80
2019,03,18,16,37,20.90
2019,03,18,16,38,20.90
2019,03,18,16,39,20.90
2019,03,18,16,40,20.90
2019,03,18,16,41,20.90
2019,03,18,16,42,20.90
2019,03,18,16,43,20.90
2019,03,18,16,44,20.90
2019,03,18,16,45,21.00
2019,03,18,16,46,21.00
2019,03,18,16,47,21.00
2019,03,18,16,48,21.00
2019,03,18,16,49,21.00
2019,03,18,16,50,21.00
2019,03,18,16,51,21.00
2019,03,18,16,52,21.00
2019,03,18,16,53,20.90
2019,03,18,16,54,20.90
2019,03,18,16,55,21.00
2019,03,18,16,56,21.00
2019,03,18,16,57,21.00
2019,03,18,16,58,21.00
2019,03,18,16,59,21.10
2019,03,18,17,00,21.00
2019,03,18,17,01,21.00
2019,03,18,17,02,21.00
2019,03,18,17,03,21.00
2019,03,18,17,04,21.00
2019,03,18,17,05,21.00
2019,03,18,17,06,21.00
2019,03,18,17,07,21.00
2019,03,18,17,08,20.90
2019,03,18,17,09,20.90
2019,03,18,17,10,20.90
2019,03,18,17,11,20.90
2019,03,18,17,12,20.90
2019,03,18,17,13,20.90
2019,03,18,17,14,20.90
2019,03,18,17,15,20.90
2019,03,18,17,16,20.90
2019,03,18,17,17,20.90
2019,03,18,17,18,20.90
2019,03,18,17,19,20.90
2019,03,18,17,20,20.90
2019,03,18,17,21,20.80
2019,03,18,17,22,20.80
2019,03,18,17,23,20.80
2019,03,18,17,24,20.80
2019,03,18,17,25,20.70
2019,03,18,17,26,20.70
2019,03,18,17,27,20.70
2019,03,18,17,28,20.60
2019,03,18,17,29,20.60
2019,03,18,17,30,20.60
2019,03,18,17,31,20.50
2019,03,18,17,32,20.50
2019,03,18,17,33,20.50
2019,03,18,17,34,20.40
2019,03,18,17,35,20.40
2019,03,18,17,36,20.40
2019,03,18,17,37,20.40
2019,03,18,17,38,20.30
2019,03,18,17,39,20.30
2019,03,18,17,40,20.30
2019,03,18,17,41,20.40
2019,03,18,17,42,20.40
2019,03,18,17,43,20.40
2019,03,18,17,44,20.40
2019,03,18,17,45,20.40
2019,03,18,17,46,20.40
2019,03,18,17,47,20.30
2019,03,18,17,48,20.30
2019,03,18,17,49,20.30